EIN109 EIDW-KJFK

Flight info

Callsign EIN109
Flight time N/A
Altitude 36000
Route PELIG2J PELIG DCT DOGAL/M077F360 NATA ALLRY/N0441F380 N468A TUSKY DCT PLYMM PARCH3
Aircraft A21N/M-SDE2E3FGHIJ1RWXY/LB1

Departure

Time 2026-05-01 10:05
Airport Dublin Airport (EIDW)

Arrival

Time N/A
Airport John F. Kennedy International Airport (KJFK)
Time Latitude Longitude Altitude Speed Heading
2026-05-01 09:11 53.42351 -6.24517 231 ft 0 kts 136°
2026-05-01 09:54 53.42355 -6.24523 230 ft 4 kts 137°
2026-05-01 09:54 53.42375 -6.24552 232 ft 4 kts 142°
2026-05-01 09:54 53.42398 -6.24578 231 ft 4 kts 152°
2026-05-01 09:54 53.42421 -6.24593 231 ft 4 kts 178°
2026-05-01 09:55 53.42439 -6.24585 234 ft 2 kts 240°
2026-05-01 09:55 53.42439 -6.24583 234 ft 0 kts 241°
2026-05-01 09:58 53.42437 -6.24590 234 ft 2 kts 241°
2026-05-01 09:58 53.42427 -6.24622 231 ft 4 kts 241°
2026-05-01 09:59 53.42408 -6.24678 230 ft 7 kts 238°
2026-05-01 09:59 53.42374 -6.24750 230 ft 9 kts 231°
2026-05-01 09:59 53.42375 -6.24858 231 ft 12 kts 317°
2026-05-01 09:59 53.42461 -6.24934 232 ft 16 kts 336°
2026-05-01 10:00 53.42571 -6.25016 230 ft 18 kts 336°
2026-05-01 10:00 53.42693 -6.25105 230 ft 20 kts 323°
2026-05-01 10:00 53.42799 -6.25245 230 ft 21 kts 337°
2026-05-01 10:00 53.42933 -6.25350 230 ft 22 kts 329°
2026-05-01 10:01 53.43073 -6.25462 230 ft 23 kts 337°
2026-05-01 10:01 53.43223 -6.25569 230 ft 24 kts 336°
2026-05-01 10:01 53.43359 -6.25645 230 ft 11 kts 345°
2026-05-01 10:01 53.43407 -6.25565 230 ft 12 kts 87°
2026-05-01 10:02 53.43401 -6.25411 231 ft 14 kts 96°
2026-05-01 10:02 53.43391 -6.25240 230 ft 16 kts 95°
2026-05-01 10:02 53.43380 -6.25027 230 ft 19 kts 95°
2026-05-01 10:02 53.43367 -6.24796 230 ft 20 kts 95°
2026-05-01 10:03 53.43364 -6.24610 230 ft 13 kts 69°
2026-05-01 10:03 53.43412 -6.24562 230 ft 0 kts 360°
2026-05-01 10:03 53.43442 -6.24560 230 ft 8 kts
2026-05-01 10:03 53.43505 -6.24564 229 ft 10 kts 336°
2026-05-01 10:04 53.43528 -6.24637 230 ft 0 kts 276°
2026-05-01 10:04 53.43534 -6.24729 230 ft 34 kts 275°
2026-05-01 10:05 53.43580 -6.25542 230 ft 103 kts 275°
2026-05-01 10:05 53.43664 -6.27069 237 ft 157 kts 276°
2026-05-01 10:05 53.43770 -6.28989 620 ft 168 kts 275°
2026-05-01 10:05 53.43869 -6.30965 1157 ft 179 kts 272°
2026-05-01 10:06 53.44235 -6.33053 1852 ft 194 kts 303°
2026-05-01 10:06 53.45322 -6.34421 2549 ft 205 kts 330°
2026-05-01 10:06 53.46532 -6.35743 3233 ft 213 kts 315°
2026-05-01 10:06 53.47509 -6.37676 3899 ft 222 kts 303°
2026-05-01 10:07 53.48451 -6.39818 4524 ft 238 kts 302°
2026-05-01 10:07 53.49470 -6.42191 4914 ft 262 kts 302°
2026-05-01 10:07 53.50563 -6.44758 5525 ft 276 kts 302°
2026-05-01 10:07 53.51430 -6.47611 6297 ft 275 kts 279°
2026-05-01 10:08 53.50819 -6.53645 7884 ft 265 kts 233°
2026-05-01 10:08 53.49754 -6.56167 8578 ft 266 kts 229°
2026-05-01 10:08 53.48645 -6.58677 9015 ft 268 kts 229°
2026-05-01 10:09 53.47545 -6.61207 9126 ft 269 kts 230°
2026-05-01 10:09 53.46469 -6.63766 9140 ft 270 kts 232°
2026-05-01 10:09 53.45450 -6.66413 9614 ft 270 kts 233°
2026-05-01 10:09 53.44431 -6.69100 10388 ft 276 kts 233°
2026-05-01 10:10 53.43383 -6.71865 11002 ft 290 kts 233°
2026-05-01 10:10 53.42260 -6.74823 11341 ft 312 kts 233°
2026-05-01 10:10 53.39854 -6.81197 12653 ft 329 kts 233°
2026-05-01 10:11 53.38625 -6.84453 13462 ft 333 kts 233°
2026-05-01 10:11 53.37379 -6.87742 14218 ft 337 kts 232°
2026-05-01 10:11 53.36139 -6.91023 14926 ft 340 kts 232°
2026-05-01 10:11 53.34868 -6.94377 15649 ft 343 kts 232°
2026-05-01 10:12 53.33584 -6.97757 16389 ft 345 kts 232°
2026-05-01 10:12 53.32709 -7.00052 16879 ft 347 kts 232°
2026-05-01 10:12 53.29660 -7.08050 18511 ft 355 kts 232°
2026-05-01 10:13 53.28324 -7.11541 19113 ft 357 kts 232°
2026-05-01 10:13 53.26981 -7.15046 19701 ft 360 kts 232°
2026-05-01 10:13 53.25620 -7.18588 20306 ft 363 kts 231°
2026-05-01 10:14 53.22866 -7.25743 21454 ft 369 kts 231°
2026-05-01 10:14 53.21553 -7.29453 22009 ft 377 kts 238°
2026-05-01 10:14 53.20712 -7.33655 22532 ft 390 kts 253°
2026-05-01 10:14 53.20588 -7.38248 23029 ft 405 kts 270°
2026-05-01 10:15 53.21127 -7.42927 23534 ft 414 kts 277°
2026-05-01 10:15 53.21814 -7.47548 23950 ft 417 kts 278°
2026-05-01 10:15 53.22508 -7.52260 24327 ft 419 kts 277°
2026-05-01 10:15 53.23182 -7.56996 24693 ft 421 kts 277°
2026-05-01 10:16 53.23845 -7.61764 25037 ft 423 kts 277°
2026-05-01 10:16 53.24504 -7.66570 25370 ft 425 kts 276°
2026-05-01 10:16 53.25815 -7.76258 26002 ft 431 kts 276°
2026-05-01 10:17 53.26470 -7.81157 26291 ft 433 kts 276°
2026-05-01 10:17 53.27789 -7.91034 26901 ft 438 kts 276°
2026-05-01 10:17 53.28450 -7.96019 27188 ft 440 kts 276°
2026-05-01 10:18 53.29784 -8.06039 27734 ft 444 kts 276°
2026-05-01 10:18 53.30456 -8.11073 28018 ft 445 kts 276°
2026-05-01 10:18 53.31124 -8.16142 28282 ft 447 kts 275°
2026-05-01 10:19 53.31785 -8.21228 28548 ft 449 kts 275°
2026-05-01 10:19 53.32452 -8.26341 28832 ft 451 kts 275°
2026-05-01 10:19 53.33116 -8.31428 29035 ft 454 kts 275°
2026-05-01 10:20 53.34461 -8.41801 29489 ft 458 kts 275°
2026-05-01 10:20 53.35135 -8.47012 29722 ft 460 kts 275°
2026-05-01 10:20 53.35809 -8.52264 29956 ft 462 kts 275°
2026-05-01 10:20 53.36479 -8.57527 30184 ft 463 kts 275°
2026-05-01 10:21 53.37152 -8.62813 30390 ft 465 kts 275°
2026-05-01 10:21 53.38494 -8.73436 30762 ft 468 kts 275°
2026-05-01 10:21 53.39160 -8.78768 31011 ft 469 kts 274°
2026-05-01 10:22 53.40492 -8.89520 31321 ft 473 kts 274°
2026-05-01 10:22 53.41816 -9.00336 31682 ft 475 kts 274°
2026-05-01 10:23 53.42483 -9.05747 31912 ft 474 kts 274°
2026-05-01 10:23 53.43830 -9.16572 32356 ft 473 kts 274°
2026-05-01 10:23 53.44498 -9.21980 32564 ft 473 kts 274°
2026-05-01 10:24 53.45809 -9.32777 33000 ft 472 kts 274°
2026-05-01 10:24 53.47101 -9.43598 33301 ft 474 kts 274°
2026-05-01 10:25 53.48394 -9.54433 33676 ft 473 kts 273°
2026-05-01 10:25 53.49669 -9.65253 34018 ft 472 kts 273°
2026-05-01 10:26 53.50308 -9.70645 34162 ft 472 kts 273°
2026-05-01 10:26 53.50729 -9.74231 34249 ft 471 kts 273°
2026-05-01 10:26 53.51987 -9.85026 34486 ft 471 kts 274°
2026-05-01 10:27 53.53236 -9.95805 34721 ft 470 kts 274°
2026-05-01 10:27 53.54461 -10.06599 34896 ft 470 kts 274°
2026-05-01 10:28 53.55068 -10.11998 35006 ft 470 kts 275°
2026-05-01 10:28 53.56289 -10.22778 35212 ft 469 kts 275°
2026-05-01 10:28 53.56892 -10.28179 35316 ft 469 kts 275°
2026-05-01 10:29 53.58086 -10.38962 35502 ft 469 kts 275°
2026-05-01 10:29 53.58686 -10.44355 35634 ft 468 kts 276°
2026-05-01 10:30 53.59878 -10.55102 35846 ft 466 kts 276°
2026-05-01 10:30 53.61057 -10.65829 36017 ft 465 kts 276°
2026-05-01 10:31 53.63368 -10.87223 36080 ft 466 kts 276°
2026-05-01 10:32 53.65082 -11.03352 36072 ft 466 kts 276°
2026-05-01 10:33 53.67326 -11.24880 36072 ft 467 kts 276°
2026-05-01 10:34 53.68974 -11.41033 36077 ft 467 kts 275°
2026-05-01 10:34 53.70050 -11.51734 36075 ft 465 kts 275°
2026-05-01 10:35 53.71672 -11.67877 36067 ft 466 kts 276°
2026-05-01 10:35 53.72745 -11.78651 36061 ft 464 kts 276°
2026-05-01 10:36 53.74337 -11.94786 36062 ft 465 kts 276°
2026-05-01 10:37 53.75383 -12.05608 36055 ft 465 kts 276°
2026-05-01 10:37 53.76927 -12.21817 36062 ft 467 kts 276°
2026-05-01 10:38 53.77955 -12.32633 36058 ft 468 kts 276°
2026-05-01 10:38 53.78976 -12.43490 36055 ft 465 kts 276°
2026-05-01 10:39 53.79973 -12.54271 36065 ft 468 kts 276°
2026-05-01 10:39 53.80961 -12.65107 36083 ft 467 kts 277°
2026-05-01 10:40 53.81946 -12.75937 36054 ft 466 kts 277°
2026-05-01 10:40 53.82919 -12.86798 36066 ft 467 kts 276°
2026-05-01 10:41 53.83884 -12.97713 36063 ft 467 kts 277°
2026-05-01 10:42 53.85317 -13.14027 36079 ft 467 kts 276°
2026-05-01 10:42 53.86250 -13.24931 36084 ft 469 kts 277°
2026-05-01 10:43 53.87181 -13.35871 36086 ft 469 kts 277°
2026-05-01 10:43 53.88113 -13.46816 36076 ft 470 kts 277°
2026-05-01 10:44 53.89025 -13.57729 36092 ft 470 kts 277°
2026-05-01 10:44 53.89918 -13.68645 36096 ft 468 kts 276°
2026-05-01 10:45 53.90812 -13.79603 36118 ft 471 kts 277°
2026-05-01 10:45 53.91690 -13.90561 36113 ft 467 kts 277°
2026-05-01 10:46 53.92563 -14.01420 36111 ft 466 kts 277°
2026-05-01 10:46 53.93427 -14.12369 36116 ft 468 kts 277°
2026-05-01 10:47 53.94286 -14.23305 36130 ft 466 kts 277°
2026-05-01 10:47 53.95129 -14.34221 36119 ft 468 kts 279°
2026-05-01 10:48 53.95962 -14.45174 36121 ft 467 kts 278°
2026-05-01 10:48 53.96775 -14.56065 36126 ft 466 kts 278°
2026-05-01 10:49 53.97597 -14.67013 36148 ft 468 kts 278°
2026-05-01 10:49 53.98392 -14.77941 36153 ft 464 kts 278°
2026-05-01 10:50 53.99185 -14.88827 36150 ft 466 kts 279°
2026-05-01 10:50 53.99938 -14.99676 36152 ft 464 kts 277°
2026-05-01 10:51 54.00200 -15.10652 36152 ft 465 kts 274°
2026-05-01 10:51 54.00401 -15.21651 36169 ft 465 kts 274°
2026-05-01 10:52 54.00599 -15.32641 36162 ft 465 kts 274°
2026-05-01 10:52 54.00797 -15.43630 36174 ft 467 kts 273°
2026-05-01 10:53 54.00971 -15.54526 36165 ft 458 kts 274°
2026-05-01 10:53 54.01145 -15.65375 36179 ft 458 kts 274°
2026-05-01 10:54 54.01304 -15.76235 36178 ft 458 kts 274°
2026-05-01 10:54 54.01434 -15.87100 36196 ft 459 kts 274°
2026-05-01 10:55 54.01589 -15.97946 36201 ft 460 kts 274°
2026-05-01 10:55 54.01733 -16.08765 36199 ft 458 kts 275°
2026-05-01 10:56 54.01861 -16.19500 36203 ft 458 kts 275°
2026-05-01 10:56 54.01975 -16.30332 36202 ft 457 kts 275°
2026-05-01 10:57 54.02072 -16.41149 36198 ft 457 kts 274°
2026-05-01 10:57 54.02167 -16.51974 36214 ft 457 kts 274°
2026-05-01 10:58 54.02258 -16.62794 36216 ft 458 kts 274°
2026-05-01 10:58 54.02329 -16.73628 36222 ft 458 kts 274°
2026-05-01 10:59 54.02398 -16.84435 36220 ft 459 kts 274°
2026-05-01 10:59 54.02452 -16.95269 36231 ft 459 kts 274°
2026-05-01 11:00 54.02496 -17.06092 36229 ft 458 kts 274°
2026-05-01 11:00 54.02532 -17.16822 36231 ft 458 kts 274°
2026-05-01 11:01 54.02554 -17.27625 36230 ft 454 kts 274°
2026-05-01 11:01 54.02566 -17.38375 36243 ft 454 kts 274°
2026-05-01 11:02 54.02566 -17.49113 36242 ft 454 kts 274°
2026-05-01 11:02 54.02570 -17.59857 36245 ft 454 kts 274°
2026-05-01 11:03 54.02559 -17.70597 36238 ft 453 kts 274°
2026-05-01 11:03 54.02534 -17.81287 36251 ft 452 kts 274°
2026-05-01 11:04 54.02497 -17.91971 36258 ft 452 kts 274°
2026-05-01 11:04 54.02457 -18.02588 36261 ft 453 kts 274°
2026-05-01 11:05 54.02406 -18.13276 36261 ft 453 kts 273°
2026-05-01 11:05 54.02345 -18.23962 36257 ft 451 kts 274°
2026-05-01 11:06 54.02284 -18.34575 36268 ft 450 kts 274°
2026-05-01 11:06 54.02205 -18.45188 36276 ft 450 kts 274°
2026-05-01 11:07 54.02069 -18.61093 36273 ft 448 kts 273°
2026-05-01 11:07 54.01958 -18.71585 36279 ft 449 kts 273°
2026-05-01 11:08 54.01849 -18.82185 36276 ft 447 kts 273°
2026-05-01 11:09 54.01666 -18.98048 36271 ft 446 kts 273°
2026-05-01 11:09 54.01534 -19.08556 36291 ft 445 kts 273°
2026-05-01 11:10 54.01315 -19.24287 36289 ft 444 kts 273°
2026-05-01 11:10 54.01162 -19.34780 36282 ft 443 kts 273°
2026-05-01 11:11 54.01002 -19.45138 36293 ft 441 kts 273°
2026-05-01 11:11 54.00826 -19.55566 36294 ft 441 kts 273°
2026-05-01 11:12 54.00643 -19.66007 36303 ft 442 kts 272°
2026-05-01 11:12 54.00444 -19.76432 36301 ft 441 kts 272°
2026-05-01 11:13 54.00248 -19.86857 36292 ft 441 kts 272°
2026-05-01 11:13 54.00040 -19.97272 36315 ft 441 kts 272°
2026-05-01 11:14 53.99558 -20.07686 36310 ft 443 kts 269°
2026-05-01 11:14 53.98949 -20.18103 36314 ft 443 kts 269°
2026-05-01 11:15 53.98342 -20.28518 36316 ft 443 kts 269°
2026-05-01 11:15 53.97723 -20.38924 36313 ft 443 kts 269°
2026-05-01 11:16 53.97102 -20.49301 36317 ft 443 kts 268°
2026-05-01 11:16 53.96465 -20.59715 36321 ft 443 kts 268°
2026-05-01 11:17 53.95814 -20.70114 36329 ft 443 kts 268°
2026-05-01 11:17 53.95162 -20.80524 36328 ft 443 kts 268°
2026-05-01 11:18 53.94502 -20.90911 36328 ft 443 kts 268°
2026-05-01 11:18 53.93827 -21.01347 36323 ft 444 kts 267°
2026-05-01 11:19 53.93146 -21.11733 36327 ft 443 kts 267°
2026-05-01 11:19 53.92452 -21.22112 36330 ft 443 kts 267°
2026-05-01 11:20 53.91753 -21.32405 36344 ft 442 kts 267°
2026-05-01 11:20 53.91050 -21.42783 36337 ft 442 kts 267°
2026-05-01 11:21 53.90335 -21.53153 36335 ft 443 kts 266°
2026-05-01 11:21 53.89608 -21.63534 36342 ft 443 kts 266°
2026-05-01 11:22 53.88873 -21.73901 36338 ft 443 kts 266°
2026-05-01 11:22 53.88129 -21.84273 36340 ft 443 kts 266°
2026-05-01 11:23 53.87375 -21.94639 36346 ft 443 kts 266°
2026-05-01 11:23 53.86615 -22.04993 36346 ft 443 kts 266°
2026-05-01 11:24 53.85846 -22.15344 36351 ft 443 kts 266°
2026-05-01 11:25 53.84671 -22.30883 36355 ft 443 kts 266°
2026-05-01 11:25 53.83614 -22.44655 36361 ft 443 kts 266°
2026-05-01 11:26 53.82401 -22.60132 36355 ft 444 kts 265°
2026-05-01 11:27 53.81584 -22.70479 36360 ft 443 kts 265°
2026-05-01 11:27 53.80756 -22.80817 36366 ft 444 kts 265°
2026-05-01 11:28 53.79921 -22.91150 36365 ft 443 kts 265°
2026-05-01 11:28 53.79073 -23.01492 36371 ft 443 kts 265°
2026-05-01 11:29 53.77787 -23.16988 36371 ft 444 kts 265°
2026-05-01 11:30 53.76479 -23.32478 36371 ft 444 kts 265°
2026-05-01 11:30 53.75594 -23.42798 36380 ft 444 kts 265°
2026-05-01 11:31 53.74712 -23.53057 36381 ft 444 kts 265°
2026-05-01 11:31 53.73814 -23.63368 36375 ft 444 kts 265°
2026-05-01 11:32 53.72906 -23.73691 36381 ft 444 kts 265°
2026-05-01 11:32 53.71984 -23.84014 36389 ft 444 kts 264°
2026-05-01 11:33 53.71058 -23.94331 36396 ft 444 kts 264°
2026-05-01 11:33 53.70124 -24.04638 36395 ft 444 kts 264°
2026-05-01 11:34 53.69176 -24.14934 36383 ft 444 kts 264°
2026-05-01 11:34 53.68221 -24.25225 36401 ft 444 kts 264°
2026-05-01 11:35 53.67257 -24.35522 36398 ft 444 kts 264°
2026-05-01 11:35 53.66286 -24.45802 36405 ft 444 kts 264°
2026-05-01 11:36 53.65305 -24.56088 36403 ft 444 kts 264°
2026-05-01 11:36 53.64321 -24.66367 36404 ft 444 kts 264°
2026-05-01 11:37 53.63321 -24.76617 36409 ft 444 kts 264°
2026-05-01 11:37 53.62323 -24.86809 36416 ft 443 kts 264°
2026-05-01 11:38 53.61314 -24.97058 36418 ft 444 kts 264°
2026-05-01 11:38 53.60293 -25.07297 36423 ft 443 kts 264°
2026-05-01 11:39 53.59261 -25.17527 36407 ft 443 kts 264°
2026-05-01 11:39 53.58222 -25.27746 36426 ft 443 kts 264°
2026-05-01 11:40 53.57175 -25.37959 36426 ft 443 kts 264°
2026-05-01 11:40 53.56124 -25.48123 36428 ft 440 kts 264°
2026-05-01 11:41 53.55068 -25.58254 36434 ft 440 kts 264°
2026-05-01 11:41 53.54004 -25.68375 36420 ft 440 kts 264°
2026-05-01 11:42 53.52925 -25.78483 36436 ft 439 kts 264°
2026-05-01 11:42 53.51840 -25.88601 36437 ft 439 kts 264°
2026-05-01 11:43 53.50750 -25.98707 36439 ft 440 kts 264°
2026-05-01 11:43 53.49658 -26.08737 36450 ft 440 kts 264°
2026-05-01 11:44 53.47995 -26.23878 36444 ft 439 kts 264°
2026-05-01 11:44 53.46882 -26.33963 36451 ft 439 kts 264°
2026-05-01 11:45 53.45753 -26.44036 36451 ft 440 kts 264°
2026-05-01 11:45 53.44614 -26.54116 36458 ft 440 kts 264°
2026-05-01 11:46 53.43465 -26.64194 36458 ft 440 kts 264°
2026-05-01 11:46 53.42307 -26.74262 36444 ft 440 kts 264°
2026-05-01 11:47 53.41146 -26.84332 36463 ft 440 kts 264°
2026-05-01 11:47 53.39973 -26.94402 36461 ft 440 kts 264°
2026-05-01 11:48 53.38791 -27.04469 36460 ft 440 kts 263°
2026-05-01 11:48 53.37599 -27.14539 36463 ft 440 kts 263°
2026-05-01 11:49 53.36403 -27.24589 36463 ft 441 kts 263°
2026-05-01 11:49 53.35206 -27.34581 36467 ft 441 kts 263°
2026-05-01 11:50 53.33982 -27.44700 36469 ft 441 kts 263°
2026-05-01 11:50 53.32769 -27.54675 36477 ft 441 kts 263°
2026-05-01 11:51 53.31536 -27.64717 36472 ft 440 kts 263°
2026-05-01 11:51 53.30302 -27.74687 36470 ft 438 kts 263°
2026-05-01 11:52 53.29060 -27.84642 36483 ft 437 kts 263°
2026-05-01 11:52 53.27813 -27.94600 36481 ft 438 kts 263°
2026-05-01 11:53 53.26554 -28.04549 36484 ft 438 kts 263°
2026-05-01 11:53 53.25287 -28.14490 36488 ft 438 kts 263°
2026-05-01 11:54 53.24012 -28.24423 36475 ft 438 kts 262°
2026-05-01 11:54 53.22728 -28.34352 36489 ft 438 kts 262°
2026-05-01 11:55 53.21438 -28.44276 36492 ft 438 kts 262°
2026-05-01 11:55 53.20137 -28.54206 36496 ft 438 kts 262°
2026-05-01 11:56 53.18829 -28.64123 36496 ft 438 kts 262°
2026-05-01 11:56 53.17523 -28.73967 36484 ft 438 kts 262°
2026-05-01 11:57 53.16196 -28.83876 36496 ft 438 kts 262°
2026-05-01 11:57 53.14863 -28.93797 36498 ft 438 kts 262°
2026-05-01 11:58 53.13522 -29.03688 36507 ft 438 kts 262°
2026-05-01 11:59 53.11492 -29.18539 36510 ft 438 kts 262°
2026-05-01 11:59 53.10129 -29.28432 36506 ft 438 kts 261°
2026-05-01 12:00 53.08068 -29.43255 36517 ft 438 kts 261°
2026-05-01 12:01 53.05981 -29.58062 36522 ft 438 kts 261°
2026-05-01 12:01 53.04586 -29.67924 36520 ft 439 kts 261°
2026-05-01 12:02 53.03184 -29.77787 36510 ft 439 kts 261°
2026-05-01 12:02 53.01776 -29.87619 36510 ft 437 kts 260°
2026-05-01 12:03 53.00365 -29.97426 36523 ft 437 kts 261°
2026-05-01 12:03 52.99555 -30.07335 36536 ft 433 kts 268°
2026-05-01 12:04 52.99009 -30.17217 36524 ft 433 kts 268°
2026-05-01 12:04 52.98438 -30.27157 36501 ft 433 kts 268°
2026-05-01 12:05 52.97849 -30.37122 36521 ft 434 kts 268°
2026-05-01 12:05 52.96949 -30.52089 36533 ft 435 kts 268°
2026-05-01 12:06 52.96339 -30.62056 36534 ft 435 kts 267°
2026-05-01 12:06 52.95721 -30.72025 36536 ft 435 kts 267°
2026-05-01 12:07 52.95095 -30.82000 36532 ft 435 kts 267°
2026-05-01 12:07 52.94463 -30.91979 36539 ft 436 kts 267°
2026-05-01 12:08 52.93818 -31.01978 36539 ft 436 kts 266°
2026-05-01 12:08 52.93157 -31.11963 36540 ft 436 kts 266°
2026-05-01 12:09 52.92493 -31.21913 36539 ft 433 kts 266°
2026-05-01 12:09 52.91835 -31.31757 36544 ft 433 kts 266°
2026-05-01 12:10 52.90829 -31.46674 36550 ft 435 kts 266°
2026-05-01 12:11 52.89792 -31.61620 36552 ft 435 kts 265°
2026-05-01 12:11 52.89091 -31.71576 36554 ft 436 kts 265°
2026-05-01 12:12 52.88380 -31.81539 36553 ft 436 kts 265°
2026-05-01 12:12 52.87662 -31.91499 36555 ft 436 kts 265°
2026-05-01 12:13 52.86928 -32.01466 36554 ft 437 kts 265°
2026-05-01 12:13 52.86195 -32.11378 36556 ft 437 kts 265°
2026-05-01 12:14 52.85453 -32.21360 36555 ft 437 kts 265°
2026-05-01 12:14 52.84697 -32.31320 36554 ft 437 kts 265°
2026-05-01 12:15 52.83935 -32.41262 36555 ft 436 kts 264°
2026-05-01 12:15 52.83174 -32.51114 36555 ft 435 kts 264°
2026-05-01 12:16 52.82401 -32.61027 36555 ft 435 kts 264°
2026-05-01 12:16 52.81617 -32.70935 36555 ft 435 kts 264°
2026-05-01 12:17 52.80825 -32.80844 36563 ft 435 kts 264°
2026-05-01 12:17 52.80027 -32.90737 36565 ft 435 kts 264°
2026-05-01 12:18 52.79218 -33.00631 36556 ft 435 kts 264°
2026-05-01 12:18 52.78399 -33.10557 36565 ft 436 kts 263°
2026-05-01 12:19 52.77575 -33.20428 36568 ft 437 kts 263°
2026-05-01 12:19 52.76736 -33.30348 36568 ft 437 kts 263°
2026-05-01 12:20 52.75892 -33.40281 36567 ft 437 kts 263°
2026-05-01 12:20 52.75038 -33.50205 36569 ft 437 kts 263°
2026-05-01 12:21 52.74178 -33.60131 36569 ft 438 kts 263°
2026-05-01 12:21 52.73453 -33.68393 36571 ft 436 kts 262°
2026-05-01 12:22 52.72578 -33.78281 36573 ft 436 kts 262°
2026-05-01 12:22 52.71694 -33.88185 36570 ft 436 kts 262°
2026-05-01 12:23 52.70802 -33.98069 36569 ft 436 kts 262°
2026-05-01 12:23 52.69901 -34.07945 36569 ft 436 kts 262°
2026-05-01 12:24 52.68990 -34.17829 36577 ft 435 kts 262°
2026-05-01 12:24 52.68075 -34.27702 36574 ft 437 kts 262°
2026-05-01 12:25 52.66676 -34.42520 36574 ft 436 kts 261°
2026-05-01 12:26 52.65750 -34.52315 36580 ft 435 kts 262°
2026-05-01 12:26 52.64330 -34.67141 36583 ft 438 kts 261°
2026-05-01 12:27 52.62884 -34.81994 36583 ft 439 kts 261°
2026-05-01 12:28 52.61420 -34.96825 36587 ft 437 kts 261°
2026-05-01 12:29 52.59944 -35.11591 36583 ft 437 kts 260°
2026-05-01 12:29 52.58439 -35.26438 36586 ft 440 kts 259°
2026-05-01 12:30 52.56923 -35.41229 36585 ft 439 kts 259°
2026-05-01 12:31 52.55893 -35.51140 36584 ft 440 kts 259°
2026-05-01 12:31 52.54856 -35.61037 36586 ft 440 kts 259°
2026-05-01 12:32 52.53812 -35.70937 36582 ft 441 kts 259°
2026-05-01 12:32 52.52222 -35.85866 36588 ft 442 kts 259°
2026-05-01 12:33 52.51153 -35.95808 36587 ft 443 kts 259°
2026-05-01 12:33 52.50077 -36.05696 36587 ft 443 kts 258°
2026-05-01 12:34 52.48982 -36.15691 36589 ft 442 kts 258°
2026-05-01 12:34 52.47894 -36.25558 36591 ft 443 kts 258°
2026-05-01 12:35 52.46791 -36.35492 36595 ft 443 kts 258°
2026-05-01 12:35 52.45664 -36.45424 36593 ft 443 kts 258°
2026-05-01 12:36 52.44534 -36.55354 36593 ft 443 kts 258°
2026-05-01 12:36 52.43407 -36.65275 36595 ft 443 kts 258°
2026-05-01 12:37 52.42260 -36.75194 36594 ft 444 kts 257°
2026-05-01 12:37 52.41117 -36.85150 36597 ft 446 kts 257°
2026-05-01 12:38 52.39953 -36.95123 36600 ft 446 kts 257°
2026-05-01 12:38 52.38780 -37.05087 36598 ft 446 kts 257°
2026-05-01 12:39 52.37583 -37.15038 36599 ft 446 kts 257°
2026-05-01 12:39 52.36399 -37.24988 36607 ft 446 kts 257°
2026-05-01 12:40 52.35209 -37.34995 36598 ft 448 kts 256°
2026-05-01 12:40 52.34001 -37.44897 36596 ft 447 kts 256°
2026-05-01 12:41 52.32778 -37.54856 36596 ft 447 kts 256°
2026-05-01 12:41 52.31556 -37.64805 36596 ft 447 kts 256°
2026-05-01 12:42 52.30335 -37.74757 36598 ft 447 kts 256°
2026-05-01 12:42 52.29100 -37.84707 36596 ft 447 kts 256°
2026-05-01 12:43 52.27844 -37.94636 36599 ft 446 kts 256°
2026-05-01 12:43 52.26586 -38.04564 36600 ft 446 kts 256°
2026-05-01 12:44 52.25315 -38.14481 36597 ft 447 kts 256°
2026-05-01 12:45 52.22771 -38.34256 36601 ft 449 kts 255°
2026-05-01 12:45 52.21468 -38.44242 36601 ft 450 kts 255°
2026-05-01 12:46 52.20164 -38.54229 36599 ft 450 kts 255°
2026-05-01 12:46 52.18840 -38.64208 36599 ft 450 kts 255°
2026-05-01 12:47 52.17512 -38.74184 36600 ft 450 kts 255°
2026-05-01 12:47 52.16178 -38.84154 36600 ft 452 kts 254°
2026-05-01 12:48 52.14817 -38.94165 36601 ft 453 kts 254°
2026-05-01 12:48 52.13465 -39.04179 36600 ft 453 kts 254°
2026-05-01 12:49 52.12100 -39.14129 36602 ft 453 kts 254°
2026-05-01 12:49 52.10719 -39.24133 36602 ft 453 kts 254°
2026-05-01 12:50 52.09338 -39.34126 36607 ft 454 kts 254°
2026-05-01 12:50 52.07935 -39.44171 36602 ft 456 kts 253°
2026-05-01 12:51 52.06519 -39.54230 36599 ft 457 kts 254°
2026-05-01 12:52 52.04388 -39.69305 36602 ft 457 kts 253°
2026-05-01 12:52 52.02238 -39.84313 36612 ft 454 kts 253°
2026-05-01 12:53 52.00103 -39.99293 36588 ft 458 kts 256°
2026-05-01 12:54 51.99412 -40.09599 36600 ft 460 kts 262°
2026-05-01 12:54 51.98539 -40.25107 36599 ft 460 kts 262°
2026-05-01 12:55 51.97635 -40.40617 36607 ft 461 kts 261°
2026-05-01 12:56 51.97012 -40.50968 36600 ft 463 kts 261°
2026-05-01 12:56 51.96379 -40.61366 36604 ft 463 kts 261°
2026-05-01 12:57 51.95739 -40.71738 36600 ft 461 kts 261°
2026-05-01 12:57 51.94783 -40.87115 36588 ft 459 kts 261°
2026-05-01 12:58 51.94114 -40.97414 36602 ft 459 kts 261°
2026-05-01 12:59 51.93110 -41.12871 36595 ft 460 kts 261°
2026-05-01 12:59 51.92091 -41.28340 36590 ft 460 kts 261°
2026-05-01 13:00 51.91052 -41.43814 36594 ft 460 kts 260°
2026-05-01 13:01 51.89984 -41.59256 36588 ft 459 kts 261°
2026-05-01 13:02 51.88905 -41.74590 36586 ft 457 kts 260°
2026-05-01 13:07 51.80444 -42.86147 36581 ft 450 kts 259°
2026-05-01 13:08 51.79630 -42.96177 36578 ft 450 kts 259°
2026-05-01 13:08 51.78807 -43.06204 36578 ft 450 kts 259°
2026-05-01 13:09 51.77976 -43.16224 36578 ft 450 kts 259°
2026-05-01 13:09 51.77134 -43.26247 36578 ft 450 kts 259°
2026-05-01 13:10 51.76290 -43.36237 36584 ft 448 kts 259°
2026-05-01 13:10 51.75435 -43.46200 36576 ft 448 kts 259°
2026-05-01 13:11 51.74578 -43.56157 36577 ft 448 kts 259°
2026-05-01 13:11 51.73715 -43.66044 36576 ft 448 kts 259°
2026-05-01 13:12 51.72835 -43.75985 36578 ft 448 kts 259°
2026-05-01 13:12 51.71953 -43.85916 36582 ft 448 kts 259°
2026-05-01 13:13 51.71063 -43.95838 36576 ft 447 kts 259°
2026-05-01 13:13 51.70160 -44.05746 36574 ft 447 kts 259°
2026-05-01 13:14 51.69248 -44.15650 36567 ft 447 kts 259°
2026-05-01 13:14 51.68340 -44.25525 36568 ft 445 kts 259°
2026-05-01 13:15 51.67414 -44.35380 36568 ft 445 kts 259°
2026-05-01 13:15 51.66487 -44.45218 36574 ft 444 kts 259°
2026-05-01 13:16 51.65559 -44.54987 36563 ft 444 kts 259°
2026-05-01 13:16 51.64615 -44.64793 36568 ft 444 kts 259°
2026-05-01 13:17 51.62703 -44.84416 36566 ft 443 kts 259°
2026-05-01 13:18 51.61251 -44.99106 36567 ft 443 kts 259°
2026-05-01 13:18 51.60274 -45.08885 36568 ft 442 kts 258°
2026-05-01 13:19 51.59287 -45.18637 36572 ft 442 kts 258°
2026-05-01 13:20 51.57793 -45.33245 36563 ft 441 kts 258°
2026-05-01 13:20 51.56795 -45.42985 36568 ft 441 kts 258°
2026-05-01 13:21 51.55451 -45.55940 36565 ft 441 kts 258°
2026-05-01 13:21 51.54427 -45.65656 36565 ft 441 kts 258°
2026-05-01 13:22 51.53226 -45.76956 36557 ft 441 kts 258°
2026-05-01 13:22 51.52359 -45.85097 36561 ft 441 kts 258°
2026-05-01 13:23 51.51309 -45.94796 36559 ft 441 kts 258°
2026-05-01 13:23 51.50258 -46.04492 36558 ft 441 kts 258°
2026-05-01 13:24 51.49199 -46.14167 36562 ft 441 kts 258°
2026-05-01 13:25 51.47592 -46.28690 36556 ft 441 kts 258°
2026-05-01 13:25 51.46516 -46.38360 36552 ft 441 kts 258°
2026-05-01 13:26 51.45420 -46.47959 36548 ft 440 kts 257°
2026-05-01 13:26 51.44310 -46.57614 36552 ft 441 kts 258°
2026-05-01 13:27 51.43229 -46.67278 36562 ft 441 kts 257°
2026-05-01 13:27 51.41562 -46.81780 36550 ft 442 kts 258°
2026-05-01 13:28 51.39874 -46.96301 36549 ft 442 kts 257°
2026-05-01 13:29 51.37580 -47.15645 36549 ft 442 kts 257°
2026-05-01 13:31 51.34065 -47.44621 36543 ft 443 kts 257°
2026-05-01 13:32 51.31091 -47.68774 36538 ft 443 kts 257°
2026-05-01 13:33 51.28113 -47.92836 36537 ft 443 kts 257°
2026-05-01 13:34 51.25662 -48.12142 36528 ft 443 kts 256°
2026-05-01 13:35 51.23802 -48.26607 36528 ft 443 kts 256°
2026-05-01 13:36 51.21925 -48.41051 36516 ft 444 kts 257°
2026-05-01 13:36 51.20010 -48.55556 36529 ft 446 kts 257°
2026-05-01 13:37 51.18734 -48.65234 36528 ft 446 kts 257°
2026-05-01 13:37 51.17440 -48.74892 36526 ft 446 kts 256°
2026-05-01 13:38 51.15481 -48.89366 36525 ft 446 kts 256°
2026-05-01 13:39 51.14171 -48.99017 36526 ft 446 kts 256°
2026-05-01 13:39 51.12856 -49.08596 36521 ft 446 kts 256°
2026-05-01 13:40 51.11553 -49.18238 36520 ft 446 kts 256°
2026-05-01 13:40 51.10229 -49.27883 36514 ft 448 kts 256°
2026-05-01 13:41 51.08883 -49.37581 36512 ft 450 kts 256°
2026-05-01 13:41 51.07517 -49.47282 36511 ft 450 kts 256°
2026-05-01 13:42 51.06147 -49.56990 36511 ft 450 kts 256°
2026-05-01 13:42 51.04772 -49.66703 36505 ft 450 kts 256°
2026-05-01 13:43 51.03383 -49.76400 36502 ft 450 kts 256°
2026-05-01 13:43 51.01993 -49.86090 36505 ft 450 kts 256°
2026-05-01 13:44 51.00596 -49.95763 36497 ft 450 kts 256°
2026-05-01 13:44 50.98742 -50.05246 36505 ft 450 kts 248°
2026-05-01 13:45 50.96507 -50.14531 36498 ft 452 kts 248°
2026-05-01 13:45 50.94246 -50.23854 36496 ft 452 kts 248°
2026-05-01 13:46 50.92009 -50.33113 36488 ft 453 kts 248°
2026-05-01 13:46 50.89752 -50.42433 36487 ft 453 kts 248°
2026-05-01 13:47 50.87479 -50.51728 36486 ft 453 kts 248°
2026-05-01 13:47 50.85205 -50.61010 36485 ft 452 kts 248°
2026-05-01 13:48 50.82911 -50.70294 36480 ft 452 kts 248°
2026-05-01 13:48 50.80620 -50.79568 36480 ft 452 kts 248°
2026-05-01 13:49 50.78315 -50.88823 36472 ft 453 kts 248°
2026-05-01 13:49 50.76007 -50.98062 36473 ft 452 kts 248°
2026-05-01 13:50 50.73705 -51.07289 36464 ft 452 kts 248°
2026-05-01 13:50 50.71395 -51.16502 36466 ft 450 kts 248°
2026-05-01 13:51 50.69079 -51.25674 36463 ft 449 kts 247°
2026-05-01 13:51 50.66759 -51.34835 36461 ft 450 kts 248°
2026-05-01 13:52 50.64456 -51.43899 36457 ft 448 kts 248°
2026-05-01 13:52 50.62130 -51.53005 36455 ft 448 kts 247°
2026-05-01 13:53 50.59789 -51.62105 36451 ft 448 kts 247°
2026-05-01 13:53 50.56282 -51.75730 36452 ft 448 kts 247°
2026-05-01 13:54 50.53925 -51.84789 36450 ft 447 kts 247°
2026-05-01 13:54 50.51566 -51.93813 36443 ft 446 kts 247°
2026-05-01 13:55 50.49030 -52.02700 36444 ft 446 kts 241°
2026-05-01 13:55 50.46070 -52.11249 36438 ft 446 kts 240°
2026-05-01 13:56 50.43109 -52.19783 36439 ft 444 kts 240°
2026-05-01 13:56 50.40200 -52.28198 36440 ft 441 kts 240°
2026-05-01 13:57 50.37741 -52.35273 36439 ft 441 kts 240°
2026-05-01 13:57 50.34315 -52.45053 36431 ft 440 kts 239°
2026-05-01 13:58 50.31351 -52.53435 36431 ft 441 kts 240°
2026-05-01 13:58 50.28389 -52.61829 36432 ft 441 kts 240°
2026-05-01 13:59 50.25436 -52.70204 36417 ft 439 kts 239°
2026-05-01 13:59 50.22478 -52.78536 36418 ft 440 kts 239°
2026-05-01 14:00 50.19503 -52.86873 36419 ft 439 kts 240°
2026-05-01 14:00 50.16557 -52.95131 36420 ft 438 kts 240°
2026-05-01 14:01 50.13580 -53.03428 36411 ft 438 kts 239°
2026-05-01 14:01 50.10590 -53.11710 36407 ft 437 kts 239°
2026-05-01 14:02 50.07607 -53.19974 36409 ft 437 kts 239°
2026-05-01 14:02 50.04633 -53.28225 36411 ft 438 kts 239°
2026-05-01 14:03 50.01641 -53.36458 36407 ft 438 kts 239°
2026-05-01 14:03 49.98638 -53.44697 36414 ft 438 kts 239°
2026-05-01 14:04 49.95639 -53.52905 36402 ft 437 kts 239°
2026-05-01 14:04 49.93142 -53.59726 36399 ft 437 kts 239°
2026-05-01 14:05 49.89622 -53.69300 36394 ft 437 kts 239°
2026-05-01 14:05 49.86609 -53.77467 36393 ft 437 kts 239°
2026-05-01 14:06 49.83589 -53.85630 36390 ft 436 kts 239°
2026-05-01 14:06 49.80569 -53.93756 36384 ft 436 kts 239°
2026-05-01 14:07 49.77543 -54.01886 36386 ft 436 kts 239°
2026-05-01 14:08 49.73013 -54.14002 36379 ft 436 kts 239°
2026-05-01 14:08 49.69971 -54.22097 36370 ft 435 kts 238°
2026-05-01 14:09 49.66927 -54.30171 36371 ft 435 kts 238°
2026-05-01 14:09 49.63881 -54.38239 36360 ft 435 kts 238°
2026-05-01 14:10 49.60830 -54.46289 36357 ft 435 kts 238°
2026-05-01 14:10 49.57776 -54.54323 36360 ft 435 kts 238°
2026-05-01 14:11 49.54712 -54.62341 36355 ft 434 kts 238°
2026-05-01 14:11 49.50104 -54.74342 36342 ft 433 kts 238°
2026-05-01 14:12 49.47038 -54.82316 36342 ft 433 kts 238°
2026-05-01 14:12 49.43999 -54.90235 36344 ft 433 kts 238°
2026-05-01 14:13 49.41425 -54.96900 36335 ft 433 kts 238°
2026-05-01 14:13 49.37840 -55.06131 36334 ft 433 kts 238°
2026-05-01 14:14 49.34753 -55.14071 36330 ft 433 kts 238°
2026-05-01 14:14 49.31666 -55.22017 36329 ft 433 kts 238°
2026-05-01 14:15 49.28573 -55.29937 36331 ft 433 kts 238°
2026-05-01 14:15 49.25469 -55.37843 36325 ft 433 kts 238°
2026-05-01 14:16 49.22884 -55.44416 36321 ft 434 kts 238°
2026-05-01 14:16 49.19769 -55.52307 36327 ft 434 kts 238°
2026-05-01 14:17 49.16133 -55.61474 36323 ft 434 kts 238°
2026-05-01 14:17 49.13512 -55.68054 36333 ft 433 kts 238°
2026-05-01 14:18 49.10382 -55.75919 36322 ft 433 kts 238°
2026-05-01 14:18 49.07256 -55.83769 36316 ft 433 kts 238°
2026-05-01 14:19 49.04145 -55.91554 36324 ft 433 kts 237°
2026-05-01 14:19 49.01006 -55.99374 36315 ft 432 kts 237°
2026-05-01 14:20 48.96300 -56.11048 36307 ft 431 kts 237°
2026-05-01 14:21 48.93157 -56.18818 36298 ft 431 kts 237°
2026-05-01 14:21 48.90007 -56.26578 36293 ft 431 kts 237°
2026-05-01 14:22 48.85281 -56.38188 36297 ft 430 kts 236°
2026-05-01 14:22 48.82125 -56.45906 36288 ft 430 kts 236°
2026-05-01 14:23 48.78960 -56.53625 36285 ft 430 kts 236°
2026-05-01 14:23 48.75814 -56.61265 36276 ft 430 kts 236°
2026-05-01 14:24 48.72641 -56.68950 36268 ft 430 kts 236°
2026-05-01 14:24 48.69472 -56.76636 36262 ft 430 kts 236°
2026-05-01 14:25 48.66296 -56.84301 36262 ft 430 kts 236°
2026-05-01 14:25 48.63114 -56.91952 36262 ft 430 kts 236°
2026-05-01 14:26 48.58331 -57.03418 36263 ft 430 kts 236°
2026-05-01 14:27 48.55140 -57.11028 36271 ft 429 kts 236°
2026-05-01 14:27 48.51964 -57.18580 36270 ft 429 kts 236°
2026-05-01 14:28 48.47161 -57.29956 36263 ft 429 kts 236°
2026-05-01 14:28 48.43961 -57.37531 36256 ft 429 kts 236°
2026-05-01 14:29 48.40758 -57.45103 36256 ft 428 kts 236°
2026-05-01 14:30 48.34342 -57.60176 36240 ft 427 kts 236°
2026-05-01 14:31 48.29514 -57.71459 36240 ft 428 kts 236°
2026-05-01 14:31 48.26306 -57.78923 36218 ft 425 kts 236°
2026-05-01 14:32 48.23100 -57.86364 36223 ft 424 kts 236°
2026-05-01 14:32 48.19894 -57.93791 36206 ft 424 kts 236°
2026-05-01 14:33 48.16684 -58.01207 36215 ft 424 kts 236°
2026-05-01 14:33 48.13469 -58.08610 36208 ft 421 kts 237°
2026-05-01 14:34 48.10263 -58.15964 36206 ft 421 kts 237°
2026-05-01 14:34 48.07079 -58.23260 36200 ft 422 kts 237°
2026-05-01 14:35 48.03863 -58.30602 36201 ft 423 kts 237°
2026-05-01 14:35 48.00648 -58.37931 36191 ft 422 kts 237°
2026-05-01 14:36 47.97434 -58.45231 36188 ft 421 kts 237°
2026-05-01 14:36 47.94214 -58.52525 36184 ft 422 kts 237°
2026-05-01 14:37 47.90996 -58.59800 36190 ft 420 kts 237°
2026-05-01 14:37 47.87773 -58.67068 36197 ft 420 kts 237°
2026-05-01 14:38 47.84546 -58.74323 36202 ft 419 kts 237°
2026-05-01 14:38 47.81320 -58.81553 36198 ft 419 kts 237°
2026-05-01 14:39 47.78088 -58.88779 36192 ft 419 kts 237°
2026-05-01 14:39 47.74850 -58.95998 36191 ft 420 kts 237°
2026-05-01 14:40 47.71608 -59.03209 36186 ft 420 kts 237°
2026-05-01 14:40 47.68377 -59.10379 36188 ft 417 kts 236°
2026-05-01 14:41 47.65148 -59.17512 36183 ft 416 kts 236°
2026-05-01 14:41 47.61929 -59.24620 36162 ft 414 kts 236°
2026-05-01 14:42 47.58764 -59.31594 36163 ft 410 kts 236°
2026-05-01 14:42 47.55553 -59.38640 36153 ft 409 kts 235°
2026-05-01 14:43 47.52378 -59.45595 36150 ft 411 kts 235°
2026-05-01 14:43 47.49168 -59.52598 36147 ft 411 kts 235°
2026-05-01 14:44 47.45955 -59.59582 36148 ft 411 kts 235°
2026-05-01 14:44 47.41134 -59.70071 36129 ft 411 kts 235°
2026-05-01 14:45 47.36307 -59.80511 36128 ft 411 kts 235°
2026-05-01 14:46 47.33080 -59.87458 36126 ft 411 kts 235°
2026-05-01 14:46 47.28246 -59.97869 36120 ft 410 kts 235°
2026-05-01 14:47 47.25035 -60.04751 36115 ft 409 kts 234°
2026-05-01 14:48 47.20193 -60.15095 36106 ft 409 kts 234°
2026-05-01 14:48 47.15332 -60.25415 36104 ft 409 kts 234°
2026-05-01 14:49 47.08850 -60.39147 36097 ft 409 kts 234°
2026-05-01 14:50 47.02359 -60.52843 36071 ft 409 kts 233°
2026-05-01 14:51 46.97489 -60.63097 36058 ft 409 kts 233°
2026-05-01 14:52 46.92636 -60.73248 36059 ft 407 kts 233°
2026-05-01 14:53 46.87757 -60.83410 36054 ft 407 kts 233°
2026-05-01 14:53 46.84498 -60.90180 35982 ft 407 kts 233°
2026-05-01 14:54 46.81243 -60.96933 35975 ft 404 kts 232°
2026-05-01 14:54 46.78010 -61.03612 35918 ft 404 kts 232°
2026-05-01 14:55 46.74773 -61.10287 35914 ft 404 kts 232°
2026-05-01 14:55 46.71535 -61.16955 35880 ft 403 kts 232°
2026-05-01 14:56 46.68291 -61.23613 35882 ft 402 kts 232°
2026-05-01 14:56 46.65041 -61.30251 35893 ft 407 kts 232°
2026-05-01 14:57 46.61741 -61.36974 35861 ft 409 kts 232°
2026-05-01 14:57 46.56789 -61.47088 35855 ft 409 kts 232°
2026-05-01 14:58 46.53482 -61.53810 35864 ft 409 kts 231°
2026-05-01 14:58 46.50172 -61.60512 35877 ft 408 kts 231°
2026-05-01 14:59 46.46864 -61.67212 35874 ft 408 kts 231°
2026-05-01 14:59 46.43551 -61.73901 35894 ft 408 kts 231°
2026-05-01 15:00 46.38579 -61.83896 35901 ft 408 kts 231°
2026-05-01 15:01 46.35278 -61.90512 35906 ft 408 kts 231°
2026-05-01 15:01 46.31950 -61.97167 35910 ft 408 kts 231°
2026-05-01 15:02 46.28619 -62.03813 35909 ft 408 kts 231°
2026-05-01 15:02 46.25290 -62.10442 35900 ft 408 kts 231°
2026-05-01 15:03 46.21958 -62.17055 35905 ft 406 kts 231°
2026-05-01 15:03 46.18632 -62.23644 35890 ft 406 kts 231°
2026-05-01 15:04 46.15302 -62.30225 35898 ft 407 kts 230°
2026-05-01 15:04 46.11970 -62.36789 35887 ft 408 kts 230°
2026-05-01 15:05 46.08596 -62.43433 35887 ft 408 kts 230°
2026-05-01 15:05 46.05269 -62.49963 35874 ft 406 kts 230°
2026-05-01 15:06 46.01919 -62.56522 35860 ft 406 kts 230°
2026-05-01 15:06 45.98572 -62.63056 35861 ft 406 kts 230°
2026-05-01 15:07 45.95218 -62.69596 35851 ft 406 kts 230°
2026-05-01 15:07 45.91860 -62.76112 35850 ft 405 kts 230°
2026-05-01 15:08 45.88506 -62.82617 35844 ft 406 kts 230°
2026-05-01 15:08 45.85146 -62.89124 35821 ft 405 kts 229°
2026-05-01 15:09 45.81807 -62.95565 35823 ft 405 kts 229°
2026-05-01 15:09 45.78428 -63.02082 35823 ft 405 kts 229°
2026-05-01 15:10 45.75088 -63.08501 35819 ft 405 kts 229°
2026-05-01 15:10 45.70034 -63.18188 35832 ft 405 kts 229°
2026-05-01 15:11 45.64971 -63.27863 35820 ft 405 kts 228°
2026-05-01 15:12 45.61600 -63.34287 35816 ft 404 kts 228°
2026-05-01 15:12 45.56539 -63.43894 35812 ft 404 kts 228°
2026-05-01 15:14 45.48665 -63.58780 35808 ft 403 kts 227°
2026-05-01 15:14 45.43590 -63.68339 35798 ft 403 kts 227°
2026-05-01 15:15 45.36275 -63.82050 35795 ft 402 kts 227°
2026-05-01 15:16 45.30033 -63.93703 35802 ft 404 kts 227°
2026-05-01 15:18 45.21507 -64.09550 35776 ft 404 kts 227°
2026-05-01 15:19 45.14669 -64.22186 35773 ft 406 kts 226°
2026-05-01 15:19 45.09510 -64.31685 35760 ft 406 kts 226°
2026-05-01 15:20 45.04338 -64.41178 35767 ft 407 kts 226°
2026-05-01 15:21 45.00872 -64.47518 35767 ft 408 kts 226°
2026-05-01 15:21 44.97400 -64.53860 35763 ft 408 kts 226°
2026-05-01 15:22 44.92189 -64.63350 35769 ft 408 kts 226°
2026-05-01 15:22 44.88707 -64.69672 35769 ft 408 kts 226°
2026-05-01 15:23 44.85219 -64.75992 35764 ft 408 kts 226°
2026-05-01 15:23 44.81732 -64.82295 35763 ft 408 kts 226°
2026-05-01 15:24 44.78238 -64.88598 35764 ft 408 kts 226°
2026-05-01 15:24 44.74738 -64.94899 35771 ft 409 kts 225°
2026-05-01 15:25 44.71231 -65.01196 35761 ft 409 kts 225°
2026-05-01 15:25 44.67728 -65.07473 35772 ft 408 kts 225°
2026-05-01 15:26 44.64228 -65.13731 35766 ft 407 kts 225°
2026-05-01 15:26 44.60725 -65.19983 35781 ft 408 kts 225°
2026-05-01 15:27 44.57224 -65.26215 35771 ft 410 kts 225°
2026-05-01 15:28 44.51929 -65.35618 35763 ft 410 kts 225°
2026-05-01 15:28 44.48394 -65.41881 35767 ft 410 kts 225°
2026-05-01 15:29 44.43057 -65.51300 35772 ft 413 kts 225°
2026-05-01 15:30 44.35899 -65.63887 35787 ft 414 kts 225°
2026-05-01 15:31 44.25118 -65.82752 35771 ft 415 kts 225°
2026-05-01 15:32 44.17920 -65.95279 35781 ft 416 kts 226°
2026-05-01 15:34 44.07039 -66.14109 35776 ft 416 kts 226°